SAUDISAT 1C (SO-50) (27607 NORAD) Tracking and Keplerian Element Data

This shows tracking and keplerian element data for the satellite.

Feedback or suggestion? Click here.




ElementValue
Catalog27607
NameSAUDISAT 1C (SO-50)
Epoch Orbit7146
Epoch Day324.87526668
Epoch Year2022
RAAN183.1363
Inclination64.5534
Eccentricity0.0081214
Argument of Perigee264.7247
Mean Anonmoly94.4585
Mean Motion14.76423686
Decay Rate5.46E-06
L11 27607U 02058C 22324.87526668 .00000546 00000+0 94708-4 0 9994
L22 27607 64.5534 183.1363 0081214 264.7247 94.4585 14.76423686 71464



Live tracking and technical data element details for SAUDISAT 1C (SO-50) (NORAD 27607). SAUDISAT 1C (SO-50) can be tracked NOW for your location showing map with azimuth and elevation plus other details from your city location.







IsCatalogInMostPopularTable: catalog: 27607, numindb: 655
Update: records affected: 1



GetName: 27607 SAUDISAT 1C (SO-50)

Hit Count: updated at: Fri, 02 Dec 2022 12:41:05 GMT